This demonstration page uses our WeatherBlox Daily Observations layout. Learn more.

Left ArrowRight Arrow

34.74481, -87.66753

Hourly Observations for September 26, 2022

Temp ( °F °C ) Dew Point ( °F °C ) Humidity (%) Winds ( mph kmh ) Pressure ( in mb ) Visibility ( mi km ) Precip ( " mm )
12:53 am 00:53 Clear 67 19.4 54 12.2 63 63 Calm 29.93 1014 10 16 0.00 0.00
1:53 am 01:53 Clear 61 16.1 57 13.9 87 87 Calm 29.94 1014 10 16 0.00 0.00
2:53 am 02:53 Clear 58 14.4 56 13.3 93 93 Calm 29.94 1014 10 16 0.00 0.00
3:53 am 03:53 Clear 58 14.4 56 13.3 93 93 Calm 29.94 1014 10 16 0.00 0.00
4:53 am 04:53 Clear with Mist and Fog 57 13.9 55 12.8 93 93 Calm 29.94 1014 6 10 0.00 0.00
5:16 am 05:16 Clear with Mist and Fog 56 13.3 54 12.2 93 93 Calm 29.96 1015 2 3 0.00 0.00
5:33 am 05:33 Clear with Mist and Fog 56 13.3 55 12.8 97 97 Calm 29.97 1015 3 5 0.00 0.00
5:53 am 05:53 Clear with Mist and Fog 56 13.3 55 12.8 97 97 Calm 29.96 1015 4 6 0.00 0.00
6:57 am 06:57 Sunny with Mist and Fog 55 12.8 53 11.7 93 93 Calm 29.99 1016 1 1 0.00 0.00
7:08 am 07:08 Sunny with Mist and Fog 56 13.3 55 12.8 97 97 Calm 29.99 1016 3 4 0.00 0.00
7:15 am 07:15 Sunny with Mist and Fog 56 13.3 55 12.8 97 97 Calm 29.99 1016 4 6 0.00 0.00
7:53 am 07:53 Sunny 61 16.1 58 14.4 90 90 Calm 29.99 1016 10 16 0.00 0.00
8:53 am 08:53 Sunny 67 19.4 59 15 76 76 NW 6 9 29.99 1016 10 16 0.00 0.00
9:53 am 09:53 Sunny 72 22.2 57 13.9 59 59 W 7 11 30.00 1016 10 16 0.00 0.00
10:53 am 10:53 Sunny 76 24.4 55 12.8 48 48 VRB 6 9 30.00 1016 10 16 0.00 0.00
11:53 am 11:53 Sunny 79 26.1 52 11.1 39 39 NW 7 11 29.99 1016 10 16 0.00 0.00
12:53 pm 12:53 Sunny 80 26.7 44 6.7 28 28 NW 10 17 29.98 1015 10 16 0.00 0.00
1:53 pm 13:53 Sunny 79 26.1 42 5.6 27 27 NW 13 20 29.96 1015 10 16 0.00 0.00
2:53 pm 14:53 Sunny 79 26.1 44 6.7 29 29 WNW 10 17 29.95 1014 10 16 0.00 0.00
3:53 pm 15:53 Sunny 79 26.1 44 6.7 29 29 NNW 8 13 29.95 1014 10 16 0.00 0.00
4:53 pm 16:53 Sunny 78 25.6 44 6.7 30 30 NNW 7 11 29.95 1014 10 16 0.00 0.00
5:53 pm 17:53 Sunny 75 23.9 44 6.7 33 33 NNW 7 11 29.97 1015 10 16 0.00 0.00
6:53 pm 18:53 Clear 69 20.6 44 6.7 40 40 NNW 5 7 29.98 1015 10 16 0.00 0.00
7:53 pm 19:53 Clear 67 19.4 44 6.7 44 44 NNW 5 7 30.00 1016 10 16 0.00 0.00
8:53 pm 20:53 Clear 63 17.2 45 7.2 52 52 NW 3 6 30.01 1016 10 16 0.00 0.00
9:53 pm 21:53 Clear 62 16.7 45 7.2 53 53 NNW 5 7 30.02 1017 10 16 0.00 0.00
10:53 pm 22:53 Clear 62 16.7 44 6.7 52 52 NNW 5 7 30.04 1017 10 16 0.00 0.00
11:53 pm 23:53 Clear 58 14.4 45 7.2 62 62 N 3 6 30.05 1018 10 16 0.00 0.00

Powered by AerisWeather